Location: Newark
(68.4417°N, 17.4417°E)
Time: 08:21:35
(UTC+00:00)

Envisat - Visible Passes

Search period start: 18 September 2020 00:00
Search period end: 28 September 2020 00:00
Orbit: 764 x 766 km, 98.1° (Epoch: 18 September)

Date Brightness Start Highest point End Pass type
(mag) Time Alt. Az. Time Alt. Az. Time Alt. Az.
18 Sep 6.6 02:46:09 10° NE 02:48:02 12° ENE 02:49:56 10° E visible
20 Sep 6.3 03:10:55 10° NE 03:14:00 16° ENE 03:17:05 10° ESE visible
20 Sep 6.4 18:01:02 10° WSW 18:03:58 15° WNW 18:06:56 10° NW visible
21 Sep 6.8 02:35:30 10° NE 02:36:26 10° ENE 02:37:22 10° ENE visible
22 Sep 6.0 03:36:04 10° NNE 03:39:54 21° E 03:43:41 10° SE visible
22 Sep 6.8 18:28:19 10° W 18:29:57 11° WNW 18:31:36 10° NW visible
23 Sep 6.4 02:59:46 10° NE 03:02:26 14° ENE 03:05:05 10° ESE visible
23 Sep 6.3 17:49:06 10° WSW 17:52:25 17° WNW 17:55:44 10° NW visible
25 Sep 6.1 03:24:48 10° NE 03:28:21 19° ENE 03:31:53 10° ESE visible
25 Sep 6.6 18:16:03 10° W 18:18:21 13° WNW 18:20:39 10° NW visible
26 Sep 6.5 02:48:42 10° NE 02:50:50 12° ENE 02:52:58 10° E visible
26 Sep 6.2 17:37:14 10° SW 17:40:51 19° W 17:44:29 10° NNW visible
27 Sep 5.8 03:50:03 10° NNE 03:54:12 24° E 03:58:19 10° SE visible
